Location: Tamazert
(32.6352°N, 5.2072°W)
Time: 16:54:33
(UTC+00:00)

Vanguard 3 - Pass Details

Date: 12 October 2022
Orbit: 509 x 3255 km, 33.3° (Epoch: 08 December)

Event Time Altitude Azimuth Distance (km) Brightness Sun altitude
Rises 13:32:57 0° 255° (WSW) 3,708 11.0 45.0°
Reaches altitude 10° 13:38:04 10° 221° (SW) 3,351 11.3 44.4°
Maximum altitude 13:40:12 11° 206° (SSW) 3,514 11.5 44.2°
Drops below altitude 10° 13:42:35 10° 192° (SSW) 3,870 11.6 43.9°
Sets 13:50:40 0° 163° (SSE) 5,722 11.9 42.9°
